TimeCET,TemperatureF,Dew PointF,Humidity,Sea Level PressureIn,VisibilityMPH,Wind Direction,Wind SpeedMPH,Gust SpeedMPH,PrecipitationIn,Events,Conditions,WindDirDegrees,DateUTC
12:55 AM,64.4,57.2,77,30.09,6.2,ESE,8.1,-,N/A,,Partly Cloudy,120,2012-11-13 23:55:00
1:00 AM,65,57,67,30.11,7,ESE,8.1,,,,Scattered Clouds,120,2012-11-14 00:00:00
1:55 AM,66.2,59.0,78,30.09,6.2,East,4.6,-,N/A,,Partly Cloudy,90,2012-11-14 00:55:00
2:55 AM,64.4,57.2,77,30.09,6.2,East,3.5,-,N/A,,Partly Cloudy,80,2012-11-14 01:55:00
3:55 AM,66.2,55.4,68,30.06,6.2,East,11.5,-,N/A,,Partly Cloudy,100,2012-11-14 02:55:00
4:55 AM,66.2,55.4,68,30.06,6.2,East,12.7,-,N/A,,Partly Cloudy,100,2012-11-14 03:55:00
5:55 AM,66.2,53.6,64,30.04,6.2,ESE,3.5,-,N/A,,Partly Cloudy,110,2012-11-14 04:55:00
6:55 AM,64.4,53.6,68,30.01,6.2,ENE,11.5,-,N/A,,Scattered Clouds,70,2012-11-14 05:55:00
7:00 AM,65,54,59,30.01,10,ENE,11.5,,,,Mostly Cloudy,70,2012-11-14 06:00:00
7:55 AM,66.2,53.6,64,30.04,6.2,ESE,2.3,-,N/A,,Scattered Clouds,110,2012-11-14 06:55:00
8:55 AM,64.4,59.0,83,30.06,6.2,SE,1.2,-,N/A,,Scattered Clouds,140,2012-11-14 07:55:00
9:55 AM,71.6,57.2,60,30.06,6.2,SE,8.1,-,N/A,,Partly Cloudy,140,2012-11-14 08:55:00
10:55 AM,73.4,59.0,61,30.06,6.2,SE,23.0,-,N/A,,Partly Cloudy,140,2012-11-14 09:55:00
11:55 AM,75.2,57.2,53,30.04,6.2,SE,20.7,-,N/A,,Partly Cloudy,140,2012-11-14 10:55:00
12:55 PM,75.2,55.4,50,30.04,6.2,SE,23.0,-,N/A,,Scattered Clouds,140,2012-11-14 11:55:00
1:00 PM,76,56,39,30.04,12,SE,23.0,,,,Mostly Cloudy,140,2012-11-14 12:00:00
1:55 PM,75.2,57.2,53,30.01,6.2,SE,16.1,-,N/A,,Scattered Clouds,140,2012-11-14 12:55:00
2:55 PM,73.4,59.0,61,30.01,6.2,SE,10.4,-,N/A,,Scattered Clouds,140,2012-11-14 13:55:00
3:55 PM,71.6,62.6,73,30.01,6.2,Calm,Calm,-,N/A,,Scattered Clouds,0,2012-11-14 14:55:00
4:55 PM,68.0,62.6,83,30.01,6.2,Calm,Calm,-,N/A,,Scattered Clouds,0,2012-11-14 15:55:00
5:55 PM,68.0,62.6,83,30.01,6.2,Calm,Calm,-,N/A,,Scattered Clouds,0,2012-11-14 16:55:00
6:55 PM,68.0,64.4,88,30.01,6.2,SSE,1.2,-,N/A,,Scattered Clouds,150,2012-11-14 17:55:00
7:00 PM,68,65,87,30.02,7,SSE,1.2,,,,Mostly Cloudy,150,2012-11-14 18:00:00
7:55 PM,68.0,66.2,94,30.01,6.2,Calm,Calm,-,N/A,,Mostly Cloudy,0,2012-11-14 18:55:00
8:55 PM,66.2,64.4,94,30.01,6.2,Calm,Calm,-,N/A,,Mostly Cloudy,0,2012-11-14 19:55:00
9:55 PM,66.2,64.4,94,30.01,6.2,ESE,3.5,-,N/A,,Mostly Cloudy,110,2012-11-14 20:55:00
10:55 PM,66.2,62.6,88,30.01,6.2,ENE,3.5,-,N/A,,Scattered Clouds,60,2012-11-14 21:55:00
11:55 PM,66.2,62.6,88,29.98,6.2,ENE,4.6,-,N/A,,Partly Cloudy,70,2012-11-14 22:55:00